H-2A DEB, 43069

Orbit data source: Space-Track

H-2A DEB, 43069 is space debris in SSO originally from a launch on Sat, 23 Dec 2017 UTC launched from the Tanegashima Space Center (TNSTA). Debris objects in space refer to the collection of defunct objects orbiting the Earth. Examples of debris include non-operational satellites, rocket bodies, and fragments generated from explosions, collisions, or faulty payload assembly.

Loading next visibility...
Identifier
43069, 2017-082E
Orbit
SSO
Country
Flag of JPJP / JPN
Related business
Manufacturer
MELCO
Mission
Spacecraft
Bus & Motor
Unknown
Mass
Unknown
Launch date (UTC)
2017-12-23 (8 years ago)
Launch vehicle
Unknown
Launch site
Tanegashima Space Center (TNSTA)
Object type
Payload
Rocket body
Debris
Shape & HBR
Unknown shape, 0.1 m
Radar Cross Section
Medium (>0.1 m² and <1 m²)

Expand to show TLE details & history
Last TLE update: 2 days ago

TLE from 2 days ago
0 H-2A DEB
1 43069U 17082E   26171.44041986  .00003143  00000-0  69730-3 0  9992
2 43069  98.2499 238.8362 0024744 121.3774 238.9850 14.57595979447217
Epoch: 2026-06-20T10:34Z
TLE epoch observation values (Epoch: 2026-06-20T10:34:12.275Z)
Latitude
-0.00004°
Longitude
171.63005°
Altitude
712.987 km
Speed
7.494 km/s
True Right ascension
15h 55m 20s
True Declination
0° 00' 00"
Sunlit
Object was in full shadow at epoch
Visualization orbit readout
Latitude
Unknown
Longitude
Unknown
Altitude
Unknown
Speed
Unknown
Apparent Right ascension
Unknown
Apparent Declination
Unknown
Sunlit
N/A
Visualization observer readout
Local Sidereal Time
21:38:27
Azimuth
Unknown
Elevation
Unknown
Doppler factor
Unknown
Orbital elements
Apogee altitude
715.543 km
Perigee altitude
680.524 km
Semi-major axis
7,076.171 km
Eccentricity
0.00247
Inclination
98.2499°
RAAN
238.8362°
Arg. of periapsis
121.3774°
True anomaly
238.74238°
Mean anomaly
238.985°
Eccentric anomaly
238.86365°
Mean motion
3.64624 °/min
Orbital period
98.73 mins
BSTAR
0.0006973
Loading maneuver chart data...
Computing Atmospheric mass density...
Loading historical data...
Loading historical data...
Loading historical data...
Loading historical data...
Loading historical data...
Loading historical data...
Loading historical data...
Other satellites on launch #82 in the year 2017 (2017-12-23 UTC)

Documentation

Showing up to 5 results
|